When you browse on this site, cookies collect data to enhance your experience and personalize the content and advertising you see.
Visit our Privacy Policy to learn more. By continuing to use the site, you agree to this use of cookies and data.
  • In United Kingdom
  • List of Countries
  • For 7 days
  • Water Temperature
  • Satellite Maps
  • Weather Map
  • Weather Widgets
  • user-avatar
    Login

    Hourly Weather Corozal

    Today, 24 March, Sunday

    Time Temperature Precipitation Wind Pressure Humidity
    00:00 +23°C° 0 mm 1 mps 763 mmHg 72%
    01:00 +23°C° 0 mm 1 mps 762 mmHg 75%
    02:00 +22°C° 0 mm 1 mps 762 mmHg 78%
    03:00 +22°C° 0 mm 1 mps 762 mmHg 82%
    04:00 +22°C° 0 mm 1 mps 762 mmHg 85%
    05:00 +22°C° 0 mm 1 mps 762 mmHg 88%
    06:00 +22°C° 0 mm 1 mps 762 mmHg 91%
    07:00 +24°C° 0 mm 1 mps 763 mmHg 82%
    08:00 +26°C° 0 mm 2 mps 763 mmHg 73%
    09:00 +29°C° 0 mm 2 mps 764 mmHg 64%
    10:00 +30°C° 0.1 mm 2 mps 763 mmHg 58%
    11:00 +32°C° 0.1 mm 2 mps 763 mmHg 52%
    12:00 +34°C° 0.1 mm 2 mps 762 mmHg 46%
    13:00 +34°C° 0 mm 2 mps 762 mmHg 46%
    14:00 +34°C° 0 mm 2 mps 761 mmHg 46%
    15:00 +34°C° 0 mm 3 mps 760 mmHg 46%
    16:00 +33°C° 0 mm 3 mps 760 mmHg 52%
    17:00 +30°C° 0 mm 3 mps 760 mmHg 58%
    18:00 +29°C° 0 mm 3 mps 760 mmHg 64%
    19:00 +27°C° 0 mm 2 mps 761 mmHg 70%
    20:00 +26°C° 0 mm 2 mps 761 mmHg 76%
    21:00 +25°C° 0 mm 1 mps 762 mmHg 83%
    22:00 +25°C° 0 mm 1 mps 762 mmHg 85%
    23:00 +24°C° 0 mm 1 mps 762 mmHg 88%

    Tomorrow, 25 March, Monday

    Time Temperature Precipitation Wind Pressure Humidity
    00:00 +24°C° 0 mm 1 mps 762 mmHg 91%
    01:00 +23°C° 0 mm 1 mps 761 mmHg 93%
    02:00 +23°C° 0 mm 1 mps 761 mmHg 95%
    03:00 +23°C° 0 mm 1 mps 760 mmHg 97%
    04:00 +23°C° 0 mm 1 mps 761 mmHg 98%
    05:00 +22°C° 0 mm 1 mps 761 mmHg 98%
    06:00 +22°C° 0 mm 1 mps 761 mmHg 99%
    07:00 +25°C° 0 mm 1 mps 761 mmHg 86%
    08:00 +28°C° 0 mm 1 mps 762 mmHg 74%
    09:00 +31°C° 0 mm 1 mps 762 mmHg 62%
    10:00 +32°C° 0 mm 1 mps 762 mmHg 56%
    11:00 +33°C° 0 mm 1 mps 762 mmHg 51%
    12:00 +35°C° 0 mm 2 mps 761 mmHg 46%
    13:00 +35°C° 0 mm 2 mps 760 mmHg 45%
    14:00 +35°C° 0 mm 2 mps 760 mmHg 45%
    15:00 +35°C° 0 mm 2 mps 759 mmHg 44%
    16:00 +32°C° 0 mm 2 mps 759 mmHg 49%
    17:00 +31°C° 0 mm 2 mps 759 mmHg 55%
    18:00 +29°C° 0 mm 2 mps 759 mmHg 60%
    19:00 +28°C° 0 mm 2 mps 760 mmHg 66%
    20:00 +27°C° 0 mm 2 mps 760 mmHg 72%
    21:00 +26°C° 0 mm 2 mps 761 mmHg 77%
    22:00 +25°C° 0 mm 1 mps 761 mmHg 80%
    23:00 +25°C° 0 mm 1 mps 761 mmHg 82%

    Day after tomorrow, 26 March, Tuesday

    Time Temperature Precipitation Wind Pressure Humidity
    00:00 +24°C° 0 mm 1 mps 761 mmHg 84%
    01:00 +24°C° 0 mm 1 mps 761 mmHg 86%
    02:00 +24°C° 0 mm 1 mps 760 mmHg 89%
    03:00 +23°C° 0 mm 1 mps 760 mmHg 91%
    04:00 +23°C° 0 mm 1 mps 760 mmHg 93%
    05:00 +23°C° 0 mm 1 mps 760 mmHg 94%
    06:00 +23°C° 0 mm 1 mps 760 mmHg 95%
    07:00 +25°C° 0 mm 1 mps 761 mmHg 84%
    08:00 +28°C° 0 mm 1 mps 762 mmHg 73%
    09:00 +30°C° 0 mm 2 mps 762 mmHg 63%
    10:00 +31°C° 0.1 mm 2 mps 762 mmHg 56%
    11:00 +34°C° 0.1 mm 2 mps 762 mmHg 50%
    12:00 +35°C° 0.1 mm 2 mps 761 mmHg 44%
    13:00 +35°C° 0.3 mm 3 mps 760 mmHg 45%
    14:00 +34°C° 0.3 mm 3 mps 760 mmHg 47%
    15:00 +34°C° 0.3 mm 4 mps 759 mmHg 48%
    16:00 +33°C° 0 mm 3 mps 759 mmHg 53%
    17:00 +31°C° 0 mm 3 mps 759 mmHg 58%
    18:00 +29°C° 0 mm 2 mps 759 mmHg 62%
    19:00 +28°C° 0 mm 2 mps 760 mmHg 68%
    20:00 +27°C° 0 mm 2 mps 761 mmHg 73%
    21:00 +26°C° 0 mm 2 mps 761 mmHg 79%
    22:00 +25°C° 0.1 mm 2 mps 761 mmHg 82%
    23:00 +25°C° 0.1 mm 1 mps 761 mmHg 86%

    27 March, Wednesday

    Time Temperature Precipitation Wind Pressure Humidity
    00:00 +24°C° 0.1 mm 1 mps 761 mmHg 89%
    01:00 +24°C° 0 mm 1 mps 761 mmHg 91%
    02:00 +24°C° 0 mm 2 mps 761 mmHg 92%
    03:00 +23°C° 0 mm 2 mps 761 mmHg 94%
    04:00 +23°C° 0 mm 2 mps 761 mmHg 95%
    05:00 +23°C° 0 mm 2 mps 761 mmHg 96%
    06:00 +23°C° 0 mm 2 mps 762 mmHg 97%
    07:00 +25°C° 0 mm 2 mps 762 mmHg 87%
    08:00 +27°C° 0 mm 2 mps 763 mmHg 77%
    09:00 +29°C° 0 mm 2 mps 763 mmHg 67%
    10:00 +30°C° 0 mm 2 mps 763 mmHg 58%
    11:00 +32°C° 0 mm 2 mps 762 mmHg 49%
    12:00 +35°C° 0 mm 2 mps 762 mmHg 40%
    13:00 +35°C° 0 mm 3 mps 761 mmHg 40%
    14:00 +35°C° 0 mm 3 mps 760 mmHg 41%
    15:00 +35°C° 0 mm 4 mps 759 mmHg 41%
    16:00 +33°C° 0 mm 3 mps 760 mmHg 49%
    17:00 +30°C° 0 mm 3 mps 760 mmHg 57%
    18:00 +28°C° 0 mm 3 mps 760 mmHg 64%
    19:00 +28°C° 0 mm 3 mps 761 mmHg 68%
    20:00 +27°C° 0 mm 2 mps 761 mmHg 73%
    21:00 +26°C° 0 mm 2 mps 762 mmHg 77%
    22:00 +25°C° 0 mm 2 mps 762 mmHg 78%
    23:00 +25°C° 0 mm 2 mps 762 mmHg 79%

    28 March, Thursday

    Time Temperature Precipitation Wind Pressure Humidity
    00:00 +24°C° 0 mm 2 mps 762 mmHg 80%
    01:00 +24°C° 0 mm 2 mps 762 mmHg 83%
    02:00 +24°C° 0 mm 2 mps 762 mmHg 87%
    03:00 +23°C° 0 mm 2 mps 761 mmHg 90%
    04:00 +23°C° 0 mm 2 mps 762 mmHg 91%
    05:00 +21°C° 0 mm 2 mps 762 mmHg 91%
    06:00 +21°C° 0 mm 2 mps 763 mmHg 91%
    07:00 +24°C° 0 mm 2 mps 763 mmHg 81%
    08:00 +26°C° 0 mm 2 mps 764 mmHg 71%
    09:00 +28°C° 0 mm 2 mps 764 mmHg 61%
    10:00 +30°C° 0 mm 2 mps 763 mmHg 54%
    11:00 +32°C° 0 mm 2 mps 763 mmHg 47%
    12:00 +35°C° 0 mm 2 mps 762 mmHg 40%
    13:00 +35°C° 0 mm 3 mps 761 mmHg 40%
    14:00 +35°C° 0 mm 3 mps 761 mmHg 39%
    15:00 +35°C° 0 mm 3 mps 760 mmHg 39%
    16:00 +33°C° 0 mm 4 mps 760 mmHg 47%
    17:00 +30°C° 0 mm 4 mps 760 mmHg 54%
    18:00 +28°C° 0 mm 4 mps 761 mmHg 62%
    19:00 +26°C° 0 mm 3 mps 761 mmHg 65%
    20:00 +25°C° 0 mm 3 mps 762 mmHg 67%
    21:00 +24°C° 0 mm 2 mps 762 mmHg 70%
    22:00 +24°C° 0 mm 2 mps 762 mmHg 73%
    23:00 +24°C° 0 mm 2 mps 762 mmHg 75%

    29 March, Friday

    Time Temperature Precipitation Wind Pressure Humidity
    00:00 +23°C° 0 mm 2 mps 762 mmHg 78%
    01:00 +23°C° 0 mm 2 mps 761 mmHg 80%
    02:00 +23°C° 0 mm 1 mps 761 mmHg 82%
    03:00 +22°C° 0 mm 1 mps 761 mmHg 84%
    04:00 +23°C° 0 mm 1 mps 761 mmHg 81%
    05:00 +23°C° 0 mm 1 mps 761 mmHg 79%
    06:00 +24°C° 0 mm 1 mps 762 mmHg 77%
    07:00 +25°C° 0 mm 2 mps 762 mmHg 68%
    08:00 +27°C° 0 mm 2 mps 762 mmHg 59%
    09:00 +29°C° 0 mm 2 mps 763 mmHg 50%
    10:00 +30°C° 0 mm 3 mps 762 mmHg 46%
    11:00 +31°C° 0 mm 3 mps 761 mmHg 42%
    12:00 +34°C° 0 mm 3 mps 761 mmHg 38%
    13:00 +33°C° 0 mm 3 mps 760 mmHg 37%
    14:00 +33°C° 0 mm 3 mps 760 mmHg 37%
    15:00 +33°C° 0 mm 4 mps 759 mmHg 37%
    16:00 +30°C° 0 mm 3 mps 759 mmHg 43%
    17:00 +29°C° 0 mm 3 mps 759 mmHg 49%
    18:00 +27°C° 0 mm 3 mps 760 mmHg 55%
    19:00 +26°C° 0 mm 2 mps 760 mmHg 61%
    20:00 +25°C° 0 mm 2 mps 760 mmHg 68%
    21:00 +24°C° 0 mm 1 mps 761 mmHg 74%
    22:00 +23°C° 0 mm 1 mps 761 mmHg 77%
    23:00 +23°C° 0 mm 1 mps 761 mmHg 80%
    Show more